This is the latest recevied weather packets stored in our database for station/object KE0PRS. If no packets are shown the sender has not sent any weather packets the latest 10 day(s).
| Time | Temp. | Humidity | Pressure | Rain* | Wind** | Luminosity | Snow |
|---|---|---|---|---|---|---|---|
| 1787894567 | 24.44° C | 66% | 1020.6 hPa | 0 mm | - | 0 W/m² | - |
| 1787894266 | 24.44° C | 66% | 1020.7 hPa | 0 mm | - | 0 W/m² | - |
| 1787893963 | 24.44° C | 65% | 1020.8 hPa | 0 mm | - | 0 W/m² | - |
| 1787893658 | 24.44° C | 65% | 1020.8 hPa | 0 mm | - | 0 W/m² | - |
| 1787893353 | 24.44° C | 64% | 1020.9 hPa | 0 mm | - | 0 W/m² | - |
| 1787893050 | 24.44° C | 63% | 1020.8 hPa | 0 mm | - | 0 W/m² | - |
| 1787892746 | 23.89° C | 65% | 1020.8 hPa | 0 mm | - | 0 W/m² | - |
| 1787892441 | 23.89° C | 69% | 1020.6 hPa | 0 mm | - | 0 W/m² | - |
| 1787892138 | 23.89° C | 71% | 1020.8 hPa | 0 mm | - | 0 W/m² | - |
| 1787891832 | 24.44° C | 70% | 1020.8 hPa | 0 mm | - | 0 W/m² | - |
| 1787891529 | 24.44° C | 67% | 1020.8 hPa | 0 mm | - | 0 W/m² | - |
| 1787891228 | 24.44° C | 67% | 1020.8 hPa | 0 mm | - | 0 W/m² | - |
| 1787890927 | 23.89° C | 68% | 1020.8 hPa | 0 mm | - | 0 W/m² | - |
| 1787890622 | 23.89° C | 68% | 1020.6 hPa | 0 mm | - | 0 W/m² | - |
| 1787890322 | 24.44° C | 68% | 1020.6 hPa | 0 mm | - | 0 W/m² | - |
| 1787890017 | 24.44° C | 67% | 1020.3 hPa | 0 mm | - | 0 W/m² | - |
| 1787889713 | 25° C | 66% | 1020.6 hPa | 0 mm | - | 0 W/m² | - |
| 1787889408 | 25° C | 65% | 1020.4 hPa | 0 mm | - | 0 W/m² | - |
| 1787889106 | 25° C | 65% | 1020.6 hPa | 0 mm | - | 0 W/m² | - |
| 1787888802 | 25° C | 64% | 1020.4 hPa | 0 mm | - | 0 W/m² | - |
| 1787888498 | 25° C | 64% | 1020.2 hPa | 0 mm | - | 0 W/m² | - |
| 1787888197 | 25° C | 64% | 1020 hPa | 0 mm | - | 0 W/m² | - |
| 1787887893 | 25.56° C | 63% | 1020 hPa | 0 mm | - | 0 W/m² | - |
| 1787887588 | 25.56° C | 63% | 1019.8 hPa | 0 mm | - | 0 W/m² | - |
| 1787887284 | 25° C | 63% | 1019.8 hPa | 0 mm | - | 0 W/m² | - |
* Rain latest hour (hover to see other rain measurements)
** Current wind speed in m/s (hover to see current wind gust speed)